Weather History for Fairbanks, AK

Change the Weather History Date:

Friday, March 15, 2013

  Actual Average Record
Temperature  
Mean Temperature 4 °F 10 °F  
Max Temperature 24 °F 25 °F 45 °F (1933)
Min Temperature -16 °F -4 °F -46 °F (1964)
Degree Days  
Heating Degree Days 61 55  
Month to date heating degree days 840 869  
Since 1 July heating degree days 11811 11259  
Cooling Degree Days 0 0  
Month to date cooling degree days 0 0  
Year to date cooling degree days 0 0  
Moisture  
Dew Point -13 °F    
Average Humidity 46    
Maximum Humidity 68    
Minimum Humidity 12    
Precipitation  
Precipitation 0.00 in 0.01 in 0.21 in (1952)
Month to date precipitation 0.08 0.14  
Year to date precipitation 1.35 1.14  
Snow  
Snow 0.00 in 0.20 in 3.00 in (1928)
Month to date snowfall 1.2 2.7  
Since 1 July snowfall 51.7 59.0  
Snow Depth 21.00 in    
Sea Level Pressure  
Sea Level Pressure 30.07 in    
Wind  
Wind Speed 9 mph (NE)    
Max Wind Speed 16 mph    
Max Gust Speed -    
Visibility 10 miles    
Events      
T = Trace of Precipitation, MM = Missing Value Source: NWS Daily Summary

Daily Weather History Graph

Daily Weather History Graph

Search for Another Location

Airport:

Trip Planner

Search our weather history database for the weather conditions in past years. The results will help you decide how hot, cold, wet, or windy it might be!

Date:

Astronomy

Mar. 15, 2013 Rise Set
Actual Time 8:08 AM AKDT 7:53 PM AKDT
Civil Twilight 7:20 AM AKDT 8:42 PM AKDT
Nautical Twilight 6:21 AM AKDT 9:41 PM AKDT
Astronomical Twilight 5:16 AM AKDT 10:46 PM AKDT
Moon 8:24 AM AKDT (3/15) 12:52 AM AKDT (3/15)
Length of Visible Light 13h 22m
Length of Day
11h 45m
Waxing Crescent, 16% of the Moon is Illuminated
Mar 15
Waxing Crescent
Mar 19
First Quarter
Mar 27
Full
Apr 2
Last Quarter
Apr 10
New

Hourly Weather History & Observations

Time (AKDT) Temp. Windchill Dew Point Humidity Pressure Visibility Wind Dir Wind Speed Gust Speed Precip Events Conditions
12:53 AM -2.9 °F -17.7 °F -15.0 °F 56% 30.21 in 10.0 mi NE 8.1 mph - N/A   Partly Cloudy
1:53 AM -4.0 °F -19.0 °F -16.1 °F 56% 30.19 in 10.0 mi NE 8.1 mph - N/A   Partly Cloudy
2:53 AM -8.0 °F -23.9 °F -18.0 °F 61% 30.19 in 10.0 mi NE 8.1 mph - N/A   Partly Cloudy
3:53 AM -9.4 °F -26.8 °F -18.4 °F 65% 30.13 in 10.0 mi NNE 9.2 mph - N/A   Partly Cloudy
4:53 AM -13.0 °F -31.3 °F -20.9 °F 68% 30.16 in 10.0 mi NE 9.2 mph - N/A   Partly Cloudy
5:53 AM -13.0 °F -30.0 °F -20.9 °F 68% 30.14 in 10.0 mi NE 8.1 mph - N/A   Partly Cloudy
6:53 AM -9.0 °F -22.3 °F -18.9 °F 62% 30.14 in 10.0 mi NE 5.8 mph - N/A   Partly Cloudy
7:53 AM -16.1 °F -32.3 °F -24.0 °F 67% 30.12 in 10.0 mi NE 6.9 mph - N/A   Partly Cloudy
8:53 AM -9.9 °F -27.5 °F -18.9 °F 65% 30.12 in 10.0 mi NNE 9.2 mph - N/A   Partly Cloudy
9:53 AM -4.0 °F -20.2 °F -18.0 °F 51% 30.11 in 10.0 mi NE 9.2 mph - N/A   Partly Cloudy
10:53 AM 1.0 °F -10.3 °F -14.1 °F 49% 30.09 in 10.0 mi NNE 5.8 mph - N/A   Partly Cloudy
11:53 AM 1.9 °F -9.2 °F -11.9 °F 52% 30.07 in 10.0 mi NE 5.8 mph - N/A   Partly Cloudy
12:53 PM 12.9 °F 1.6 °F -9.0 °F 37% 30.05 in 10.0 mi NNE 8.1 mph - N/A   Partly Cloudy
1:53 PM 19.9 °F 5.7 °F -9.0 °F 27% 30.01 in 10.0 mi ENE 16.1 mph - N/A   Partly Cloudy
2:53 PM 21.9 °F 8.7 °F -7.1 °F 28% 29.99 in 10.0 mi ENE 15.0 mph - N/A   Partly Cloudy
3:53 PM 23.0 °F 12.4 °F -8.0 °F 25% 29.98 in 10.0 mi ENE 10.4 mph - N/A   Partly Cloudy
4:53 PM 23.0 °F 10.6 °F -6.0 °F 28% 29.97 in 10.0 mi ENE 13.8 mph - N/A   Partly Cloudy
5:53 PM 21.9 °F 9.2 °F -6.0 °F 29% 29.97 in 10.0 mi ENE 13.8 mph - N/A   Partly Cloudy
6:53 PM 18.0 °F 11.1 °F -6.0 °F 35% 29.98 in 10.0 mi SE 4.6 mph - N/A   Partly Cloudy
7:53 PM 12.9 °F 5.2 °F -8.0 °F 39% 30.00 in 10.0 mi ENE 4.6 mph - N/A   Partly Cloudy
8:53 PM 6.1 °F -5.6 °F -9.9 °F 48% 30.01 in 10.0 mi East 6.9 mph - N/A   Clear
9:53 PM 6.1 °F -6.8 °F -11.0 °F 45% 30.01 in 10.0 mi ENE 8.1 mph - N/A   Clear
10:53 PM 9.0 °F -5.9 °F -11.0 °F 40% 30.02 in 10.0 mi ENE 11.5 mph - N/A   Clear
11:53 PM -5.1 °F -19.1 °F -15.0 °F 62% 30.04 in 10.0 mi NNE 6.9 mph - N/A   Clear